Year,Month,Day,Hour,Minute,Value (Times are PST for temperature in C)
2015,10,14,00,00,7.20
2015,10,14,00,01,7.20
2015,10,14,00,02,7.20
2015,10,14,00,03,7.20
2015,10,14,00,04,7.20
2015,10,14,00,05,7.20
2015,10,14,00,06,7.20
2015,10,14,00,07,7.20
2015,10,14,00,08,7.20
2015,10,14,00,09,7.20
2015,10,14,00,10,7.20
2015,10,14,00,11,7.20
2015,10,14,00,12,7.20
2015,10,14,00,13,7.20
2015,10,14,00,14,7.20
2015,10,14,00,15,7.20
2015,10,14,00,16,7.20
2015,10,14,00,17,7.20
2015,10,14,00,18,7.20
2015,10,14,00,19,7.20
2015,10,14,00,20,7.20
2015,10,14,00,21,7.20
2015,10,14,00,22,7.20
2015,10,14,00,23,7.20
2015,10,14,00,24,7.20
2015,10,14,00,25,7.20
2015,10,14,00,26,7.20
2015,10,14,00,27,7.20
2015,10,14,00,28,7.20
2015,10,14,00,29,7.20
2015,10,14,00,30,7.20
2015,10,14,00,31,7.10
2015,10,14,00,32,7.10
2015,10,14,00,33,7.10
2015,10,14,00,34,7.10
2015,10,14,00,35,7.10
2015,10,14,00,36,7.10
2015,10,14,00,37,7.10
2015,10,14,00,38,7.10
2015,10,14,00,39,7.10
2015,10,14,00,40,7.00
2015,10,14,00,41,7.00
2015,10,14,00,42,7.00
2015,10,14,00,43,7.10
2015,10,14,00,44,7.10
2015,10,14,00,45,7.10
2015,10,14,00,46,7.10
2015,10,14,00,47,7.10
2015,10,14,00,48,7.10
2015,10,14,00,49,7.10
2015,10,14,00,50,7.10
2015,10,14,00,51,7.10
2015,10,14,00,52,7.10
2015,10,14,00,53,7.10
2015,10,14,00,54,7.10
2015,10,14,00,55,7.10
2015,10,14,00,56,7.10
2015,10,14,00,57,7.00
2015,10,14,00,58,7.00
2015,10,14,00,59,7.00
2015,10,14,01,00,7.00
2015,10,14,01,01,7.00
2015,10,14,01,02,7.00
2015,10,14,01,03,7.00
2015,10,14,01,04,7.00
2015,10,14,01,05,7.00
2015,10,14,01,06,7.10
2015,10,14,01,07,7.10
2015,10,14,01,08,7.10
2015,10,14,01,09,7.10
2015,10,14,01,10,7.10
2015,10,14,01,11,7.10
2015,10,14,01,12,7.10
2015,10,14,01,13,7.20
2015,10,14,01,14,7.20
2015,10,14,01,15,7.10
2015,10,14,01,16,7.10
2015,10,14,01,17,7.10
2015,10,14,01,18,7.10
2015,10,14,01,19,7.20
2015,10,14,01,20,7.20
2015,10,14,01,21,7.20
2015,10,14,01,22,7.10
2015,10,14,01,23,7.10
2015,10,14,01,24,7.10
2015,10,14,01,25,7.10
2015,10,14,01,26,7.00
2015,10,14,01,27,7.00
2015,10,14,01,28,7.00
2015,10,14,01,29,7.00
2015,10,14,01,30,7.00
2015,10,14,01,31,7.00
2015,10,14,01,32,7.00
2015,10,14,01,33,7.00
2015,10,14,01,34,7.00
2015,10,14,01,35,6.90
2015,10,14,01,36,6.90
2015,10,14,01,37,6.90
2015,10,14,01,38,6.90
2015,10,14,01,39,6.90
2015,10,14,01,40,6.90
2015,10,14,01,41,6.90
2015,10,14,01,42,6.90
2015,10,14,01,43,6.80
2015,10,14,01,44,6.80
2015,10,14,01,45,6.90
2015,10,14,01,46,6.90
2015,10,14,01,47,6.90
2015,10,14,01,48,6.90
2015,10,14,01,49,6.90
2015,10,14,01,50,6.90
2015,10,14,01,51,6.90
2015,10,14,01,52,6.90
2015,10,14,01,53,6.90
2015,10,14,01,54,6.90
2015,10,14,01,55,6.90
2015,10,14,01,56,6.90
2015,10,14,01,57,6.90
2015,10,14,01,58,6.90
2015,10,14,01,59,6.90
2015,10,14,02,00,6.90
2015,10,14,02,01,6.90
2015,10,14,02,02,6.90
2015,10,14,02,03,6.90
2015,10,14,02,04,6.90
2015,10,14,02,05,6.90
2015,10,14,02,06,6.90
2015,10,14,02,07,6.90
2015,10,14,02,08,6.90
2015,10,14,02,09,6.90
2015,10,14,02,10,6.90
2015,10,14,02,11,6.90
2015,10,14,02,12,7.00
2015,10,14,02,13,7.00
2015,10,14,02,14,7.00
2015,10,14,02,15,7.00
2015,10,14,02,16,7.00
2015,10,14,02,17,7.00
2015,10,14,02,18,7.00
2015,10,14,02,19,7.00
2015,10,14,02,20,7.00
2015,10,14,02,21,7.00
2015,10,14,02,22,7.00
2015,10,14,02,23,6.90
2015,10,14,02,24,6.90
2015,10,14,02,25,6.90
2015,10,14,02,26,6.90
2015,10,14,02,27,6.90
2015,10,14,02,28,6.90
2015,10,14,02,29,6.90
2015,10,14,02,30,6.90
2015,10,14,02,31,6.90
2015,10,14,02,32,6.90
2015,10,14,02,33,6.90
2015,10,14,02,34,6.90
2015,10,14,02,35,6.90
2015,10,14,02,36,6.90
2015,10,14,02,37,6.90
2015,10,14,02,38,6.90
2015,10,14,02,39,6.90
2015,10,14,02,40,6.90
2015,10,14,02,41,6.90
2015,10,14,02,42,6.90
2015,10,14,02,43,6.90
2015,10,14,02,44,6.90
2015,10,14,02,45,6.90
2015,10,14,02,46,6.90
2015,10,14,02,47,6.90
2015,10,14,02,48,6.90
2015,10,14,02,49,6.90
2015,10,14,02,50,6.90
2015,10,14,02,51,6.90
2015,10,14,02,52,6.90
2015,10,14,02,53,6.90
2015,10,14,02,54,6.90
2015,10,14,02,55,6.90
2015,10,14,02,56,6.90
2015,10,14,02,57,6.90
2015,10,14,02,58,6.90
2015,10,14,02,59,7.00
2015,10,14,03,00,7.00
2015,10,14,03,01,7.00
2015,10,14,03,02,7.00
2015,10,14,03,03,7.00
2015,10,14,03,04,7.00
2015,10,14,03,05,7.10
2015,10,14,03,06,7.10
2015,10,14,03,07,7.10
2015,10,14,03,08,7.10
2015,10,14,03,09,7.20
2015,10,14,03,10,7.20
2015,10,14,03,11,7.20
2015,10,14,03,12,7.20
2015,10,14,03,13,7.20
2015,10,14,03,14,7.20
2015,10,14,03,15,7.20
2015,10,14,03,16,7.20
2015,10,14,03,17,7.20
2015,10,14,03,18,7.20
2015,10,14,03,19,7.30
2015,10,14,03,20,7.30
2015,10,14,03,21,7.30
2015,10,14,03,22,7.40
2015,10,14,03,23,7.40
2015,10,14,03,24,7.40
2015,10,14,03,25,7.40
2015,10,14,03,26,7.50
2015,10,14,03,27,7.50
2015,10,14,03,28,7.50
2015,10,14,03,29,7.50
2015,10,14,03,30,7.50
2015,10,14,03,31,7.50
2015,10,14,03,32,7.60
2015,10,14,03,33,7.60
2015,10,14,03,34,7.60
2015,10,14,03,35,7.60
2015,10,14,03,36,7.60
2015,10,14,03,37,7.60
2015,10,14,03,38,7.60
2015,10,14,03,39,7.60
2015,10,14,03,40,7.70
2015,10,14,03,41,7.70
2015,10,14,03,42,7.70
2015,10,14,03,43,7.70
2015,10,14,03,44,7.70
2015,10,14,03,45,7.80
2015,10,14,03,46,7.70
2015,10,14,03,47,7.70
2015,10,14,03,48,7.70
2015,10,14,03,49,7.70
2015,10,14,03,50,7.70
2015,10,14,03,51,7.70
2015,10,14,03,52,7.60
2015,10,14,03,53,7.70
2015,10,14,03,54,7.70
2015,10,14,03,55,7.60
2015,10,14,03,56,7.60
2015,10,14,03,57,7.60
2015,10,14,03,58,7.60
2015,10,14,03,59,7.60
2015,10,14,04,00,7.70
2015,10,14,04,01,7.70
2015,10,14,04,02,7.70
2015,10,14,04,03,7.70
2015,10,14,04,04,7.70
2015,10,14,04,05,7.70
2015,10,14,04,06,7.70
2015,10,14,04,07,7.70
2015,10,14,04,08,7.70
2015,10,14,04,09,7.70
2015,10,14,04,10,7.70
2015,10,14,04,11,7.70
2015,10,14,04,12,7.70
2015,10,14,04,13,7.70
2015,10,14,04,14,7.70
2015,10,14,04,15,7.70
2015,10,14,04,16,7.70
2015,10,14,04,17,7.70
2015,10,14,04,18,7.80
2015,10,14,04,19,7.80
2015,10,14,04,20,7.80
2015,10,14,04,21,7.80
2015,10,14,04,22,7.90
2015,10,14,04,23,7.90
2015,10,14,04,24,7.90
2015,10,14,04,25,7.90
2015,10,14,04,26,7.90
2015,10,14,04,27,7.80
2015,10,14,04,28,7.80
2015,10,14,04,29,7.80
2015,10,14,04,30,7.80
2015,10,14,04,31,7.80
2015,10,14,04,32,7.70
2015,10,14,04,33,7.70
2015,10,14,04,34,7.70
2015,10,14,04,35,7.70
2015,10,14,04,36,7.70
2015,10,14,04,37,7.70
2015,10,14,04,38,7.70
2015,10,14,04,39,7.60
2015,10,14,04,40,7.60
2015,10,14,04,41,7.60
2015,10,14,04,42,7.60
2015,10,14,04,43,7.60
2015,10,14,04,44,7.60
2015,10,14,04,45,7.60
2015,10,14,04,46,7.60
2015,10,14,04,47,7.60
2015,10,14,04,48,7.60
2015,10,14,04,49,7.50
2015,10,14,04,50,7.50
2015,10,14,04,51,7.40
2015,10,14,04,52,7.40
2015,10,14,04,53,7.40
2015,10,14,04,54,7.40
2015,10,14,04,55,7.40
2015,10,14,04,56,7.40
2015,10,14,04,57,7.40
2015,10,14,04,58,7.40
2015,10,14,04,59,7.40
2015,10,14,05,00,7.40
2015,10,14,05,01,7.40
2015,10,14,05,02,7.40
2015,10,14,05,03,7.40
2015,10,14,05,04,7.40
2015,10,14,05,05,7.40
2015,10,14,05,06,7.40
2015,10,14,05,07,7.40
2015,10,14,05,08,7.40
2015,10,14,05,09,7.40
2015,10,14,05,10,7.40
2015,10,14,05,11,7.40
2015,10,14,05,12,7.40
2015,10,14,05,13,7.40
2015,10,14,05,14,7.40
2015,10,14,05,15,7.50
2015,10,14,05,16,7.50
2015,10,14,05,17,7.50
2015,10,14,05,18,7.50
2015,10,14,05,19,7.60
2015,10,14,05,20,7.60
2015,10,14,05,21,7.60
2015,10,14,05,22,7.60
2015,10,14,05,23,7.60
2015,10,14,05,24,7.70
2015,10,14,05,25,7.70
2015,10,14,05,26,7.70
2015,10,14,05,27,7.70
2015,10,14,05,28,7.80
2015,10,14,05,29,7.80
2015,10,14,05,30,7.80
2015,10,14,05,31,7.90
2015,10,14,05,32,7.90
2015,10,14,05,33,8.00
2015,10,14,05,34,8.00
2015,10,14,05,35,8.10
2015,10,14,05,36,8.10
2015,10,14,05,37,8.10
2015,10,14,05,38,8.20
2015,10,14,05,39,8.20
2015,10,14,05,40,8.30
2015,10,14,05,41,8.30
2015,10,14,05,42,8.30
2015,10,14,05,43,8.30
2015,10,14,05,44,8.30
2015,10,14,05,45,8.40
2015,10,14,05,46,8.40
2015,10,14,05,47,8.40
2015,10,14,05,48,8.50
2015,10,14,05,49,8.50
2015,10,14,05,50,8.60
2015,10,14,05,51,8.60
2015,10,14,05,52,8.60
2015,10,14,05,53,8.60
2015,10,14,05,54,8.60
2015,10,14,05,55,8.60
2015,10,14,05,56,8.60
2015,10,14,05,57,8.70
2015,10,14,05,58,8.70
2015,10,14,05,59,8.80
2015,10,14,06,00,8.80
2015,10,14,06,01,8.80
2015,10,14,06,02,8.80
2015,10,14,06,03,8.80
2015,10,14,06,04,8.90
2015,10,14,06,05,8.90
2015,10,14,06,06,8.90
2015,10,14,06,07,8.90
2015,10,14,06,08,8.90
2015,10,14,06,09,8.90
2015,10,14,06,10,8.90
2015,10,14,06,11,8.80
2015,10,14,06,12,8.80
2015,10,14,06,13,8.80
2015,10,14,06,14,8.90
2015,10,14,06,15,8.90
2015,10,14,06,16,9.00
2015,10,14,06,17,9.10
2015,10,14,06,18,9.30
2015,10,14,06,19,9.40
2015,10,14,06,20,9.50
2015,10,14,06,21,9.60
2015,10,14,06,22,9.70
2015,10,14,06,23,9.70
2015,10,14,06,24,9.70
2015,10,14,06,25,9.80
2015,10,14,06,26,9.80
2015,10,14,06,27,9.90
2015,10,14,06,28,9.90
2015,10,14,06,29,9.90
2015,10,14,06,30,9.90
2015,10,14,06,31,9.90
2015,10,14,06,32,9.90
2015,10,14,06,33,9.90
2015,10,14,06,34,9.90
2015,10,14,06,35,9.90
2015,10,14,06,36,10.00
2015,10,14,06,37,10.00
2015,10,14,06,38,10.00
2015,10,14,06,39,10.00
2015,10,14,06,40,10.00
2015,10,14,06,41,10.00
2015,10,14,06,42,10.10
2015,10,14,06,43,10.10
2015,10,14,06,44,10.10
2015,10,14,06,45,10.10
2015,10,14,06,46,10.10
2015,10,14,06,47,10.20
2015,10,14,06,48,10.20
2015,10,14,06,49,10.20
2015,10,14,06,50,10.20
2015,10,14,06,51,10.20
2015,10,14,06,52,10.20
2015,10,14,06,53,10.20
2015,10,14,06,54,10.20
2015,10,14,06,55,10.20
2015,10,14,06,56,10.20
2015,10,14,06,57,10.20
2015,10,14,06,58,10.20
2015,10,14,06,59,10.20
2015,10,14,07,00,10.20
2015,10,14,07,01,10.20
2015,10,14,07,02,10.30
2015,10,14,07,03,10.20
2015,10,14,07,04,10.30
2015,10,14,07,05,10.30
2015,10,14,07,06,10.30
2015,10,14,07,07,10.30
2015,10,14,07,08,10.30
2015,10,14,07,09,10.30
2015,10,14,07,10,10.30
2015,10,14,07,11,10.30
2015,10,14,07,12,10.30
2015,10,14,07,13,10.30
2015,10,14,07,14,10.30
2015,10,14,07,15,10.20
2015,10,14,07,16,10.20
2015,10,14,07,17,10.20
2015,10,14,07,18,10.20
2015,10,14,07,19,10.20
2015,10,14,07,20,10.20
2015,10,14,07,21,10.20
2015,10,14,07,22,10.20
2015,10,14,07,23,10.20
2015,10,14,07,24,10.20
2015,10,14,07,25,10.30
2015,10,14,07,26,10.30
2015,10,14,07,27,10.30
2015,10,14,07,28,10.30
2015,10,14,07,29,10.30
2015,10,14,07,30,10.30
2015,10,14,07,31,10.30
2015,10,14,07,32,10.30
2015,10,14,07,33,10.30
2015,10,14,07,34,10.30
2015,10,14,07,35,10.30
2015,10,14,07,36,10.30
2015,10,14,07,37,10.30
2015,10,14,07,38,10.30
2015,10,14,07,39,10.30
2015,10,14,07,40,10.30
2015,10,14,07,41,10.30
2015,10,14,07,42,10.30
2015,10,14,07,43,10.30
2015,10,14,07,44,10.30
2015,10,14,07,45,10.30
2015,10,14,07,46,10.30
2015,10,14,07,47,10.30
2015,10,14,07,48,10.40
2015,10,14,07,49,10.40
2015,10,14,07,50,10.40
2015,10,14,07,51,10.40
2015,10,14,07,52,10.40
2015,10,14,07,53,10.40
2015,10,14,07,54,10.40
2015,10,14,07,55,10.40
2015,10,14,07,56,10.40
2015,10,14,07,57,10.40
2015,10,14,07,58,10.40
2015,10,14,07,59,10.40
2015,10,14,08,00,10.40
2015,10,14,08,01,10.40
2015,10,14,08,02,10.40
2015,10,14,08,03,10.40
2015,10,14,08,04,10.40
2015,10,14,08,05,10.40
2015,10,14,08,06,10.50
2015,10,14,08,07,10.50
2015,10,14,08,08,10.50
2015,10,14,08,09,10.50
2015,10,14,08,10,10.50
2015,10,14,08,11,10.50
2015,10,14,08,12,10.50
2015,10,14,08,13,10.50
2015,10,14,08,14,10.50
2015,10,14,08,15,10.60
2015,10,14,08,16,10.60
2015,10,14,08,17,10.60
2015,10,14,08,18,10.60
2015,10,14,08,19,10.60
2015,10,14,08,20,10.60
2015,10,14,08,21,10.60
2015,10,14,08,22,10.60
2015,10,14,08,23,10.60
2015,10,14,08,24,10.60
2015,10,14,08,25,10.60
2015,10,14,08,26,10.60
2015,10,14,08,27,10.60
2015,10,14,08,28,10.70
2015,10,14,08,29,10.70
2015,10,14,08,30,10.70
2015,10,14,08,31,10.70
2015,10,14,08,32,10.70
2015,10,14,08,33,10.70
2015,10,14,08,34,10.70
2015,10,14,08,35,10.70
2015,10,14,08,36,10.70
2015,10,14,08,37,10.70
2015,10,14,08,38,10.70
2015,10,14,08,39,10.70
2015,10,14,08,40,10.70
2015,10,14,08,41,10.70
2015,10,14,08,42,10.80
2015,10,14,08,43,10.80
2015,10,14,08,44,10.80
2015,10,14,08,45,10.80
2015,10,14,08,46,10.80
2015,10,14,08,47,10.80
2015,10,14,08,48,10.80
2015,10,14,08,49,10.80
2015,10,14,08,50,10.80
2015,10,14,08,51,10.80
2015,10,14,08,52,10.80
2015,10,14,08,53,10.80
2015,10,14,08,54,10.80
2015,10,14,08,55,10.80
2015,10,14,08,56,10.80
2015,10,14,08,57,10.90
2015,10,14,08,58,10.90
2015,10,14,08,59,10.90
2015,10,14,09,00,10.90
2015,10,14,09,01,10.90
2015,10,14,09,02,10.90
2015,10,14,09,03,10.90
2015,10,14,09,04,10.90
2015,10,14,09,05,10.90
2015,10,14,09,06,11.00
2015,10,14,09,07,11.00
2015,10,14,09,08,11.00
2015,10,14,09,09,11.00
2015,10,14,09,10,11.00
2015,10,14,09,11,11.10
2015,10,14,09,12,11.10
2015,10,14,09,13,11.10
2015,10,14,09,14,11.10
2015,10,14,09,15,11.10
2015,10,14,09,16,11.10
2015,10,14,09,17,11.20
2015,10,14,09,18,11.20
2015,10,14,09,19,11.20
2015,10,14,09,20,11.20
2015,10,14,09,21,11.20
2015,10,14,09,22,11.20
2015,10,14,09,23,11.20
2015,10,14,09,24,11.20
2015,10,14,09,25,11.20
2015,10,14,09,26,11.20
2015,10,14,09,27,11.20
2015,10,14,09,28,11.20
2015,10,14,09,29,11.20
2015,10,14,09,30,11.20
2015,10,14,09,31,11.20
2015,10,14,09,32,11.20
2015,10,14,09,33,11.20
2015,10,14,09,34,11.20
2015,10,14,09,35,11.20
2015,10,14,09,36,11.20
2015,10,14,09,37,11.20
2015,10,14,09,38,11.30
2015,10,14,09,39,11.30
2015,10,14,09,40,11.30
2015,10,14,09,41,11.30
2015,10,14,09,42,11.30
2015,10,14,09,43,11.30
2015,10,14,09,44,11.30
2015,10,14,09,45,11.30
2015,10,14,09,46,11.30
2015,10,14,09,47,11.30
2015,10,14,09,48,11.30
2015,10,14,09,49,11.30
2015,10,14,09,50,11.30
2015,10,14,09,51,11.40
2015,10,14,09,52,11.40
2015,10,14,09,53,11.40
2015,10,14,09,54,11.40
2015,10,14,09,55,11.40
2015,10,14,09,56,11.40
2015,10,14,09,57,11.40
2015,10,14,09,58,11.40
2015,10,14,09,59,11.40
2015,10,14,10,00,11.40
2015,10,14,10,01,11.50
2015,10,14,10,02,11.50
2015,10,14,10,03,11.50
2015,10,14,10,04,11.50
2015,10,14,10,05,11.50
2015,10,14,10,06,11.50
2015,10,14,10,07,11.50
2015,10,14,10,08,11.50
2015,10,14,10,09,11.50
2015,10,14,10,10,11.50
2015,10,14,10,11,11.50
2015,10,14,10,12,11.50
2015,10,14,10,13,11.50
2015,10,14,10,14,11.50
2015,10,14,10,15,11.50
2015,10,14,10,16,11.50
2015,10,14,10,17,11.50
2015,10,14,10,18,11.50
2015,10,14,10,19,11.60
2015,10,14,10,20,11.60
2015,10,14,10,21,11.60
2015,10,14,10,22,11.60
2015,10,14,10,23,11.60
2015,10,14,10,24,11.60
2015,10,14,10,25,11.60
2015,10,14,10,26,11.60
2015,10,14,10,27,11.60
2015,10,14,10,28,11.70
2015,10,14,10,29,11.70
2015,10,14,10,30,11.70
2015,10,14,10,31,11.70
2015,10,14,10,32,11.80
2015,10,14,10,33,11.80
2015,10,14,10,34,11.80
2015,10,14,10,35,11.80
2015,10,14,10,36,11.90
2015,10,14,10,37,11.90
2015,10,14,10,38,11.90
2015,10,14,10,39,12.00
2015,10,14,10,40,12.00
2015,10,14,10,41,12.10
2015,10,14,10,42,12.10
2015,10,14,10,43,12.10
2015,10,14,10,44,12.10
2015,10,14,10,45,12.10
2015,10,14,10,46,12.20
2015,10,14,10,47,12.20
2015,10,14,10,48,12.20
2015,10,14,10,49,12.20
2015,10,14,10,50,12.30
2015,10,14,10,51,12.30
2015,10,14,10,52,12.30
2015,10,14,10,53,12.30
2015,10,14,10,54,12.40
2015,10,14,10,55,12.40
2015,10,14,10,56,12.50
2015,10,14,10,57,12.50
2015,10,14,10,58,12.60
2015,10,14,10,59,12.60
2015,10,14,11,00,12.60
2015,10,14,11,01,12.60
2015,10,14,11,02,12.60
2015,10,14,11,03,12.60
2015,10,14,11,04,12.60
2015,10,14,11,05,12.60
2015,10,14,11,06,12.60
2015,10,14,11,07,12.60
2015,10,14,11,08,12.60
2015,10,14,11,09,12.70
2015,10,14,11,10,12.70
2015,10,14,11,11,12.80
2015,10,14,11,12,12.80
2015,10,14,11,13,12.80
2015,10,14,11,14,12.80
2015,10,14,11,15,12.80
2015,10,14,11,16,12.80
2015,10,14,11,17,12.80
2015,10,14,11,18,12.90
2015,10,14,11,19,12.90
2015,10,14,11,20,12.90
2015,10,14,11,21,13.00
2015,10,14,11,22,13.00
2015,10,14,11,23,13.10
2015,10,14,11,24,13.10
2015,10,14,11,25,13.20
2015,10,14,11,26,13.20
2015,10,14,11,27,13.20
2015,10,14,11,28,13.20
2015,10,14,11,29,13.30
2015,10,14,11,30,13.30
2015,10,14,11,31,13.30
2015,10,14,11,32,13.40
2015,10,14,11,33,13.40
2015,10,14,11,34,13.40
2015,10,14,11,35,13.40
2015,10,14,11,36,13.40
2015,10,14,11,37,13.40
2015,10,14,11,38,13.40
2015,10,14,11,39,13.40
2015,10,14,11,40,13.40
2015,10,14,11,41,13.40
2015,10,14,11,42,13.40
2015,10,14,11,43,13.40
2015,10,14,11,44,13.40
2015,10,14,11,45,13.50
2015,10,14,11,46,13.50
2015,10,14,11,47,13.50
2015,10,14,11,48,13.60
2015,10,14,11,49,13.60
2015,10,14,11,50,13.50
2015,10,14,11,51,13.50
2015,10,14,11,52,13.60
2015,10,14,11,53,13.60
2015,10,14,11,54,13.60
2015,10,14,11,55,13.70
2015,10,14,11,56,13.70
2015,10,14,11,57,13.80
2015,10,14,11,58,13.80
2015,10,14,11,59,13.90
2015,10,14,12,00,14.00
2015,10,14,12,01,14.00
2015,10,14,12,02,14.20
2015,10,14,12,03,14.30
2015,10,14,12,04,14.30
2015,10,14,12,05,14.30
2015,10,14,12,06,14.30
2015,10,14,12,07,14.40
2015,10,14,12,08,14.40
2015,10,14,12,09,14.40
2015,10,14,12,10,14.30
2015,10,14,12,11,14.40
2015,10,14,12,12,14.40
2015,10,14,12,13,14.40
2015,10,14,12,14,14.40
2015,10,14,12,15,14.50
2015,10,14,12,16,14.50
2015,10,14,12,17,14.50
2015,10,14,12,18,14.60
2015,10,14,12,19,14.60
2015,10,14,12,20,14.60
2015,10,14,12,21,14.70
2015,10,14,12,22,14.70
2015,10,14,12,23,14.60
2015,10,14,12,24,14.60
2015,10,14,12,25,14.50
2015,10,14,12,26,14.60
2015,10,14,12,27,14.60
2015,10,14,12,28,14.60
2015,10,14,12,29,14.60
2015,10,14,12,30,14.60
2015,10,14,12,31,14.50
2015,10,14,12,32,14.40
2015,10,14,12,33,14.40
2015,10,14,12,34,14.40
2015,10,14,12,35,14.40
2015,10,14,12,36,14.40
2015,10,14,12,37,14.40
2015,10,14,12,38,14.40
2015,10,14,12,39,14.40
2015,10,14,12,40,14.50
2015,10,14,12,41,14.50
2015,10,14,12,42,14.60
2015,10,14,12,43,14.60
2015,10,14,12,44,14.70
2015,10,14,12,45,14.70
2015,10,14,12,46,14.70
2015,10,14,12,47,14.70
2015,10,14,12,48,14.70
2015,10,14,12,49,14.80
2015,10,14,12,50,14.90
2015,10,14,12,51,14.90
2015,10,14,12,52,14.90
2015,10,14,12,53,15.00
2015,10,14,12,54,15.00
2015,10,14,12,55,15.00
2015,10,14,12,56,15.00
2015,10,14,12,57,15.00
2015,10,14,12,58,15.00
2015,10,14,12,59,15.00
2015,10,14,13,00,15.10
2015,10,14,13,01,15.20
2015,10,14,13,02,15.20
2015,10,14,13,03,15.20
2015,10,14,13,04,15.20
2015,10,14,13,05,15.20
2015,10,14,13,06,15.20
2015,10,14,13,07,15.20
2015,10,14,13,08,15.10
2015,10,14,13,09,15.10
2015,10,14,13,10,15.20
2015,10,14,13,11,15.20
2015,10,14,13,12,15.20
2015,10,14,13,13,15.10
2015,10,14,13,14,15.10
2015,10,14,13,15,15.00
2015,10,14,13,16,15.00
2015,10,14,13,17,15.00
2015,10,14,13,18,15.00
2015,10,14,13,19,15.00
2015,10,14,13,20,15.00
2015,10,14,13,21,15.10
2015,10,14,13,22,15.20
2015,10,14,13,23,15.20
2015,10,14,13,24,15.20
2015,10,14,13,25,15.20
2015,10,14,13,26,15.10
2015,10,14,13,27,15.10
2015,10,14,13,28,15.00
2015,10,14,13,29,15.00
2015,10,14,13,30,15.00
2015,10,14,13,31,15.00
2015,10,14,13,32,15.00
2015,10,14,13,33,15.00
2015,10,14,13,34,15.10
2015,10,14,13,35,15.00
2015,10,14,13,36,15.00
2015,10,14,13,37,15.10
2015,10,14,13,38,15.20
2015,10,14,13,39,15.20
2015,10,14,13,40,15.20
2015,10,14,13,41,15.20
2015,10,14,13,42,15.20
2015,10,14,13,43,15.30
2015,10,14,13,44,15.30
2015,10,14,13,45,15.30
2015,10,14,13,46,15.40
2015,10,14,13,47,15.40
2015,10,14,13,48,15.40
2015,10,14,13,49,15.50
2015,10,14,13,50,15.50
2015,10,14,13,51,15.40
2015,10,14,13,52,15.40
2015,10,14,13,53,15.40
2015,10,14,13,54,15.40
2015,10,14,13,55,15.50
2015,10,14,13,56,15.50
2015,10,14,13,57,15.60
2015,10,14,13,58,15.60
2015,10,14,13,59,15.60
2015,10,14,14,00,15.70
2015,10,14,14,01,15.70
2015,10,14,14,02,15.70
2015,10,14,14,03,15.70
2015,10,14,14,04,15.70
2015,10,14,14,05,15.70
2015,10,14,14,06,15.70
2015,10,14,14,07,15.60
2015,10,14,14,08,15.60
2015,10,14,14,09,15.60
2015,10,14,14,10,15.60
2015,10,14,14,11,15.50
2015,10,14,14,12,15.50
2015,10,14,14,13,15.40
2015,10,14,14,14,15.40
2015,10,14,14,15,15.40
2015,10,14,14,16,15.30
2015,10,14,14,17,15.40
2015,10,14,14,18,15.40
2015,10,14,14,19,15.50
2015,10,14,14,20,15.60
2015,10,14,14,21,15.70
2015,10,14,14,22,15.70
2015,10,14,14,23,15.70
2015,10,14,14,24,15.70
2015,10,14,14,25,15.70
2015,10,14,14,26,15.60
2015,10,14,14,27,15.50
2015,10,14,14,28,15.50
2015,10,14,14,29,15.50
2015,10,14,14,30,15.40
2015,10,14,14,31,15.40
2015,10,14,14,32,15.40
2015,10,14,14,33,15.40
2015,10,14,14,34,15.40
2015,10,14,14,35,15.50
2015,10,14,14,36,15.50
2015,10,14,14,37,15.50
2015,10,14,14,38,15.50
2015,10,14,14,39,15.50
2015,10,14,14,40,15.50
2015,10,14,14,41,15.50
2015,10,14,14,42,15.60
2015,10,14,14,43,15.60
2015,10,14,14,44,15.60
2015,10,14,14,45,15.60
2015,10,14,14,46,15.60
2015,10,14,14,47,15.70
2015,10,14,14,48,15.60
2015,10,14,14,49,15.60
2015,10,14,14,50,15.60
2015,10,14,14,51,15.70
2015,10,14,14,52,15.70
2015,10,14,14,53,15.70
2015,10,14,14,54,15.60
2015,10,14,14,55,15.60
2015,10,14,14,56,15.60
2015,10,14,14,57,15.50
2015,10,14,14,58,15.50
2015,10,14,14,59,15.40
2015,10,14,15,00,15.40
2015,10,14,15,01,15.40
2015,10,14,15,02,15.40
2015,10,14,15,03,15.50
2015,10,14,15,04,15.50
2015,10,14,15,05,15.60
2015,10,14,15,06,15.60
2015,10,14,15,07,15.60
2015,10,14,15,08,15.60
2015,10,14,15,09,15.60
2015,10,14,15,10,15.50
2015,10,14,15,11,15.50
2015,10,14,15,12,15.60
2015,10,14,15,13,15.60
2015,10,14,15,14,15.60
2015,10,14,15,15,15.60
2015,10,14,15,16,15.60
2015,10,14,15,17,15.60
2015,10,14,15,18,15.60
2015,10,14,15,19,15.60
2015,10,14,15,20,15.50
2015,10,14,15,21,15.50
2015,10,14,15,22,15.50
2015,10,14,15,23,15.50
2015,10,14,15,24,15.50
2015,10,14,15,25,15.60
2015,10,14,15,26,15.60
2015,10,14,15,27,15.60
2015,10,14,15,28,15.60
2015,10,14,15,29,15.60
2015,10,14,15,30,15.60
2015,10,14,15,31,15.60
2015,10,14,15,32,15.70
2015,10,14,15,33,15.70
2015,10,14,15,34,15.80
2015,10,14,15,35,15.80
2015,10,14,15,36,15.90
2015,10,14,15,37,16.00
2015,10,14,15,38,16.00
2015,10,14,15,39,16.10
2015,10,14,15,40,16.10
2015,10,14,15,41,16.10
2015,10,14,15,42,16.00
2015,10,14,15,43,16.00
2015,10,14,15,44,16.00
2015,10,14,15,45,16.00
2015,10,14,15,46,16.00
2015,10,14,15,47,16.10
2015,10,14,15,48,16.10
2015,10,14,15,49,16.10
2015,10,14,15,50,16.10
2015,10,14,15,51,16.10
2015,10,14,15,52,16.20
2015,10,14,15,53,16.20
2015,10,14,15,54,16.20
2015,10,14,15,55,16.20
2015,10,14,15,56,16.20
2015,10,14,15,57,16.30
2015,10,14,15,58,16.30
2015,10,14,15,59,16.30
2015,10,14,16,00,16.30
2015,10,14,16,01,16.30
2015,10,14,16,02,16.30
2015,10,14,16,03,16.30
2015,10,14,16,04,16.30
2015,10,14,16,05,16.30
2015,10,14,16,06,16.30
2015,10,14,16,07,16.30
2015,10,14,16,08,16.30
2015,10,14,16,09,16.30
2015,10,14,16,10,16.40
2015,10,14,16,11,16.40
2015,10,14,16,12,16.40
2015,10,14,16,13,16.40
2015,10,14,16,14,16.40
2015,10,14,16,15,16.40
2015,10,14,16,16,16.30
2015,10,14,16,17,16.30
2015,10,14,16,18,16.30
2015,10,14,16,19,16.20
2015,10,14,16,20,16.30
2015,10,14,16,21,16.30
2015,10,14,16,22,16.30
2015,10,14,16,23,16.30
2015,10,14,16,24,16.40
2015,10,14,16,25,16.40
2015,10,14,16,26,16.40
2015,10,14,16,27,16.40
2015,10,14,16,28,16.40
2015,10,14,16,29,16.40
2015,10,14,16,30,16.40
2015,10,14,16,31,16.40
2015,10,14,16,32,16.40
2015,10,14,16,33,16.40
2015,10,14,16,34,16.30
2015,10,14,16,35,16.30
2015,10,14,16,36,16.30
2015,10,14,16,37,16.30
2015,10,14,16,38,16.20
2015,10,14,16,39,16.10
2015,10,14,16,40,16.10
2015,10,14,16,41,16.00
2015,10,14,16,42,16.00
2015,10,14,16,43,16.00
2015,10,14,16,44,16.00
2015,10,14,16,45,15.90
2015,10,14,16,46,15.90
2015,10,14,16,47,15.90
2015,10,14,16,48,15.90
2015,10,14,16,49,15.90
2015,10,14,16,50,15.90
2015,10,14,16,51,15.90
2015,10,14,16,52,15.90
2015,10,14,16,53,15.90
2015,10,14,16,54,15.90
2015,10,14,16,55,15.90
2015,10,14,16,56,15.90
2015,10,14,16,57,15.90
2015,10,14,16,58,15.90
2015,10,14,16,59,15.90
2015,10,14,17,00,16.00
2015,10,14,17,01,16.10
2015,10,14,17,02,16.10
2015,10,14,17,03,16.20
2015,10,14,17,04,16.20
2015,10,14,17,05,16.20
2015,10,14,17,06,16.20
2015,10,14,17,07,16.10
2015,10,14,17,08,16.00
2015,10,14,17,09,16.00
2015,10,14,17,10,15.90
2015,10,14,17,11,15.90
2015,10,14,17,12,15.80
2015,10,14,17,13,15.70
2015,10,14,17,14,15.60
2015,10,14,17,15,15.60
2015,10,14,17,16,15.50
2015,10,14,17,17,15.40
2015,10,14,17,18,15.40
2015,10,14,17,19,15.40
2015,10,14,17,20,15.30
2015,10,14,17,21,15.30
2015,10,14,17,22,15.30
2015,10,14,17,23,15.30
2015,10,14,17,24,15.20
2015,10,14,17,25,15.20
2015,10,14,17,26,15.10
2015,10,14,17,27,15.00
2015,10,14,17,28,15.00
2015,10,14,17,29,15.00
2015,10,14,17,30,15.00
2015,10,14,17,31,15.00
2015,10,14,17,32,15.00
2015,10,14,17,33,15.00
2015,10,14,17,34,15.00
2015,10,14,17,35,15.00
2015,10,14,17,36,14.90